• En España
  • Lista de países
  • Para 7 días
  • Temperatura del agua
  • Mapa Satelital
  • El tiempo en el mapa
  • Informadores
  • user-avatar
    Iniciar sesión

    Tiempo cada hora Rigodischi

    Hoy, 25 Septiembre, Martes

    Tiempo Temperatura Precipitaciones Viento Presión Humedad
    00:00 +6°C° 1.2 mm 4 mps 732 mmHg 94%
    01:00 +6°C° 1.2 mm 5 mps 732 mmHg 94%
    02:00 +6°C° 1.2 mm 5 mps 732 mmHg 93%
    03:00 +6°C° 0.9 mm 5 mps 732 mmHg 93%
    04:00 +5°C° 0.9 mm 6 mps 732 mmHg 92%
    05:00 +5°C° 0.9 mm 6 mps 733 mmHg 91%
    06:00 +5°C° 0.5 mm 6 mps 733 mmHg 90%
    07:00 +5°C° 0.5 mm 6 mps 734 mmHg 88%
    08:00 +5°C° 0.5 mm 6 mps 734 mmHg 87%
    09:00 +5°C° 0.2 mm 6 mps 735 mmHg 83%
    10:00 +6°C° 0.2 mm 7 mps 736 mmHg 78%
    11:00 +6°C° 0.2 mm 7 mps 737 mmHg 74%
    12:00 +8°C° 0.1 mm 7 mps 737 mmHg 70%
    13:00 +8°C° 0.1 mm 6 mps 738 mmHg 67%
    14:00 +9°C° 0.1 mm 6 mps 739 mmHg 63%
    15:00 +8°C° 0 mm 6 mps 740 mmHg 65%
    16:00 +7°C° 0 mm 5 mps 740 mmHg 67%
    17:00 +7°C° 0 mm 5 mps 741 mmHg 69%
    18:00 +6°C° 0 mm 5 mps 742 mmHg 72%
    19:00 +5°C° 0 mm 5 mps 743 mmHg 74%
    20:00 +5°C° 0 mm 5 mps 744 mmHg 76%
    21:00 +4°C° 0 mm 4 mps 745 mmHg 77%
    22:00 +4°C° 0 mm 4 mps 745 mmHg 77%
    23:00 +3°C° 0 mm 4 mps 746 mmHg 77%

    Mañana, 26 Septiembre, Miércoles

    Tiempo Temperatura Precipitaciones Viento Presión Humedad
    00:00 +3°C° 0 mm 4 mps 747 mmHg 77%
    01:00 +1°C° 0 mm 4 mps 747 mmHg 77%
    02:00 +2°C° 0 mm 3 mps 748 mmHg 77%
    03:00 +1°C° 0 mm 3 mps 748 mmHg 78%
    04:00 +1°C° 0 mm 3 mps 748 mmHg 79%
    05:00 0°C° 0 mm 3 mps 749 mmHg 80%
    06:00 +2°C° 0 mm 3 mps 749 mmHg 78%
    07:00 +3°C° 0 mm 3 mps 749 mmHg 75%
    08:00 +4°C° 0 mm 4 mps 750 mmHg 73%
    09:00 +6°C° 0 mm 4 mps 749 mmHg 69%
    10:00 +7°C° 0 mm 4 mps 749 mmHg 64%
    11:00 +9°C° 0 mm 5 mps 749 mmHg 60%
    12:00 +9°C° 0 mm 5 mps 748 mmHg 57%
    13:00 +10°C° 0 mm 5 mps 748 mmHg 54%
    14:00 +10°C° 0 mm 5 mps 747 mmHg 52%
    15:00 +10°C° 0 mm 5 mps 746 mmHg 55%
    16:00 +9°C° 0 mm 5 mps 745 mmHg 57%
    17:00 +8°C° 0 mm 5 mps 745 mmHg 60%
    18:00 +7°C° 0.6 mm 6 mps 743 mmHg 68%
    19:00 +7°C° 0.6 mm 6 mps 742 mmHg 76%
    20:00 +5°C° 0.6 mm 7 mps 741 mmHg 84%
    21:00 +5°C° 1.7 mm 7 mps 739 mmHg 86%
    22:00 +5°C° 1.7 mm 7 mps 738 mmHg 87%
    23:00 +5°C° 1.7 mm 8 mps 736 mmHg 88%

    Pasado mañana, 27 Septiembre, Jueves

    Tiempo Temperatura Precipitaciones Viento Presión Humedad
    00:00 +5°C° 1.5 mm 7 mps 736 mmHg 90%
    01:00 +7°C° 1.5 mm 6 mps 735 mmHg 91%
    02:00 +7°C° 1.5 mm 6 mps 734 mmHg 92%
    03:00 +7°C° 0.6 mm 5 mps 734 mmHg 90%
    04:00 +7°C° 0.6 mm 5 mps 734 mmHg 89%
    05:00 +6°C° 0.6 mm 5 mps 734 mmHg 87%
    06:00 +6°C° 0.1 mm 5 mps 734 mmHg 85%
    07:00 +6°C° 0.1 mm 5 mps 734 mmHg 82%
    08:00 +5°C° 0.1 mm 6 mps 735 mmHg 80%
    09:00 +7°C° 0.2 mm 6 mps 735 mmHg 76%
    10:00 +6°C° 0.2 mm 7 mps 735 mmHg 72%
    11:00 +8°C° 0.2 mm 7 mps 735 mmHg 68%
    12:00 +8°C° 0.2 mm 7 mps 735 mmHg 66%
    13:00 +8°C° 0.2 mm 7 mps 736 mmHg 64%
    14:00 +8°C° 0.2 mm 7 mps 736 mmHg 62%
    15:00 +8°C° 0.1 mm 7 mps 736 mmHg 64%
    16:00 +7°C° 0.1 mm 6 mps 737 mmHg 66%
    17:00 +7°C° 0.1 mm 5 mps 737 mmHg 69%
    18:00 +6°C° 0 mm 5 mps 737 mmHg 71%
    19:00 +5°C° 0 mm 5 mps 738 mmHg 73%
    20:00 +5°C° 0 mm 5 mps 738 mmHg 75%
    21:00 +5°C° 0 mm 4 mps 738 mmHg 76%
    22:00 +4°C° 0 mm 4 mps 738 mmHg 77%
    23:00 +4°C° 0 mm 4 mps 739 mmHg 78%

    28 Septiembre, Viernes

    Tiempo Temperatura Precipitaciones Viento Presión Humedad
    00:00 +4°C° 0 mm 4 mps 739 mmHg 81%
    01:00 +3°C° 0 mm 3 mps 738 mmHg 83%
    02:00 +3°C° 0 mm 3 mps 738 mmHg 86%
    03:00 +3°C° 0.4 mm 3 mps 738 mmHg 88%
    04:00 +4°C° 0.4 mm 2 mps 737 mmHg 89%
    05:00 +4°C° 0.4 mm 2 mps 737 mmHg 91%
    06:00 +4°C° 1.5 mm 2 mps 736 mmHg 92%
    07:00 +4°C° 1.5 mm 2 mps 735 mmHg 93%
    08:00 +4°C° 1.5 mm 2 mps 734 mmHg 94%
    09:00 +4°C° 0.6 mm 2 mps 734 mmHg 92%
    10:00 +5°C° 0.6 mm 2 mps 734 mmHg 91%
    11:00 +4°C° 0.6 mm 3 mps 734 mmHg 90%
    12:00 +5°C° 0.2 mm 3 mps 735 mmHg 85%
    13:00 +5°C° 0.2 mm 4 mps 736 mmHg 81%
    14:00 +6°C° 0.2 mm 4 mps 737 mmHg 77%
    15:00 +5°C° 0.1 mm 4 mps 738 mmHg 78%
    16:00 +4°C° 0.1 mm 3 mps 739 mmHg 79%
    17:00 +4°C° 0.1 mm 3 mps 740 mmHg 80%
    18:00 +3°C° 0 mm 3 mps 741 mmHg 82%
    19:00 +2°C° 0 mm 3 mps 741 mmHg 83%
    20:00 +1°C° 0 mm 3 mps 742 mmHg 85%
    21:00 +2°C° 0 mm 2 mps 742 mmHg 86%
    22:00 +2°C° 0 mm 2 mps 743 mmHg 87%
    23:00 +1°C° 0 mm 2 mps 743 mmHg 88%

    29 Septiembre, Sábado

    Tiempo Temperatura Precipitaciones Viento Presión Humedad
    00:00 +1°C° 0.1 mm 2 mps 743 mmHg 88%
    01:00 +2°C° 0.1 mm 2 mps 744 mmHg 88%
    02:00 +2°C° 0.1 mm 2 mps 744 mmHg 88%
    03:00 +3°C° 0.5 mm 1 mps 744 mmHg 89%
    04:00 +3°C° 0.5 mm 1 mps 745 mmHg 90%
    05:00 +4°C° 0.5 mm 1 mps 745 mmHg 90%
    06:00 +4°C° 0.1 mm 1 mps 745 mmHg 88%
    07:00 +3°C° 0.1 mm 2 mps 746 mmHg 85%
    08:00 +3°C° 0.1 mm 2 mps 746 mmHg 82%
    09:00 +4°C° 0 mm 2 mps 747 mmHg 75%
    10:00 +5°C° 0 mm 2 mps 747 mmHg 68%
    11:00 +5°C° 0 mm 3 mps 748 mmHg 61%
    12:00 +5°C° 0 mm 3 mps 748 mmHg 59%
    13:00 +7°C° 0 mm 3 mps 748 mmHg 56%
    14:00 +7°C° 0 mm 3 mps 748 mmHg 54%
    15:00 +5°C° 0 mm 3 mps 749 mmHg 61%
    16:00 +5°C° 0 mm 2 mps 749 mmHg 67%
    17:00 +5°C° 0 mm 1 mps 749 mmHg 74%
    18:00 +4°C° 0 mm 1 mps 750 mmHg 78%
    19:00 +3°C° 0 mm 1 mps 750 mmHg 81%
    20:00 +2°C° 0 mm 1 mps 750 mmHg 85%
    21:00 +1°C° 0 mm 2 mps 750 mmHg 86%
    22:00 +1°C° 0 mm 2 mps 750 mmHg 88%
    23:00 +1°C° 0 mm 2 mps 751 mmHg 89%

    30 Septiembre, Domingo

    Tiempo Temperatura Precipitaciones Viento Presión Humedad
    00:00 +1°C° 0 mm 2 mps 751 mmHg 89%
    01:00 +1°C° 0 mm 2 mps 751 mmHg 89%
    02:00 +1°C° 0 mm 2 mps 751 mmHg 89%
    03:00 +1°C° 0 mm 2 mps 751 mmHg 88%
    04:00 0°C° 0 mm 3 mps 751 mmHg 88%
    05:00 0°C° 0 mm 3 mps 750 mmHg 88%
    06:00 +1°C° 0 mm 3 mps 750 mmHg 84%
    07:00 +2°C° 0 mm 3 mps 750 mmHg 80%
    08:00 +3°C° 0 mm 4 mps 750 mmHg 76%
    09:00 +4°C° 0 mm 4 mps 750 mmHg 72%
    10:00 +5°C° 0 mm 4 mps 750 mmHg 68%
    11:00 +7°C° 0 mm 4 mps 750 mmHg 63%
    12:00 +7°C° 0 mm 4 mps 750 mmHg 62%
    13:00 +7°C° 0 mm 4 mps 749 mmHg 60%
    14:00 +8°C° 0 mm 4 mps 749 mmHg 59%
    15:00 +7°C° 0 mm 4 mps 748 mmHg 62%
    16:00 +6°C° 0 mm 4 mps 748 mmHg 65%
    17:00 +5°C° 0 mm 3 mps 747 mmHg 68%
    18:00 +4°C° 0 mm 4 mps 747 mmHg 68%
    19:00 +4°C° 0 mm 4 mps 747 mmHg 69%
    20:00 +3°C° 0 mm 4 mps 747 mmHg 70%
    21:00 +3°C° 0 mm 4 mps 747 mmHg 72%
    22:00 +3°C° 0 mm 4 mps 746 mmHg 74%
    23:00 +3°C° 0 mm 4 mps 746 mmHg 76%
    Mostrar más